Weather History for Wilmington, NC

Change the Weather History Date:

Sunday, January 13, 2013

  Actual Average Record
Temperature  
Mean Temperature 66 °F 46 °F  
Max Temperature 77 °F 56 °F 78 °F (1907)
Min Temperature 54 °F 35 °F 7 °F (1981)
Degree Days  
Heating Degree Days 0 19  
Month to date heating degree days 177 247  
Since 1 July heating degree days 1055 1131  
Cooling Degree Days 1 0  
Month to date cooling degree days 3 0  
Year to date cooling degree days 3 0  
Growing Degree Days 15 (Base 50)    
Moisture  
Dew Point 57 °F    
Average Humidity 77    
Maximum Humidity 93    
Minimum Humidity 60    
Precipitation  
Precipitation 0.00 in 0.12 in 0.92 in (1948)
Month to date precipitation 0.61 1.56  
Year to date precipitation 0.61 1.56  
Snow  
Snow 0.00 in 0.00 in 8.40 in (1912)
Month to date snowfall 0.0 0.2  
Since 1 July snowfall 0.0 1.0  
Snow Depth 0.00 in    
Sea Level Pressure  
Sea Level Pressure 30.14 in    
Wind  
Wind Speed 5 mph (SSW)    
Max Wind Speed 16 mph    
Max Gust Speed 20 mph    
Visibility 6 miles    
Events Fog    
T = Trace of Precipitation, MM = Missing Value Source: NWS Daily Summary

Daily Weather History Graph

Daily Weather History Graph

Search for Another Location

Airport:

Trip Planner

Search our weather history database for the weather conditions in past years. The results will help you decide how hot, cold, wet, or windy it might be!

Date:

Astronomy

Jan. 13, 2013 Rise Set
Actual Time 7:17 AM EST 5:23 PM EST
Civil Twilight 6:50 AM EST 5:50 PM EST
Nautical Twilight 6:19 AM EST 6:21 PM EST
Astronomical Twilight 5:49 AM EST 6:51 PM EST
Moon 8:22 AM EST (1/13) 7:51 PM EST (1/13)
Length of Visible Light 11h 00m
Length of Day
10h 05m
Waxing Crescent, 5% of the Moon is Illuminated
Jan 13
Waxing Crescent
Jan 18
First Quarter
Jan 26
Full
Feb 3
Last Quarter
Feb 10
New

Hourly Weather History & Observations

Time (EST) Temp. Dew Point Humidity Pressure Visibility Wind Dir Wind Speed Gust Speed Precip Events Conditions
12:53 AM 60.1 °F 57.0 °F 90% 30.13 in 10.0 mi Calm Calm - N/A   Clear
1:53 AM 57.9 °F 55.9 °F 93% 30.12 in 10.0 mi Calm Calm - N/A   Clear
2:53 AM 55.9 °F 54.0 °F 93% 30.12 in 4.0 mi Calm Calm - N/A   Clear
3:13 AM 55.4 °F 53.6 °F 94% 30.11 in 1.8 mi Calm Calm - N/A   Clear
3:28 AM 55.4 °F 53.6 °F 94% 30.11 in 3.0 mi Calm Calm - N/A   Clear
3:53 AM 55.0 °F 54.0 °F 96% 30.12 in 7.0 mi Calm Calm - N/A   Clear
4:53 AM 57.0 °F 55.0 °F 93% 30.11 in 7.0 mi Calm Calm - N/A   Clear
5:42 AM 55.4 °F 55.4 °F 100% 30.12 in 1.8 mi Calm Calm - N/A   Clear
5:53 AM 55.0 °F 53.1 °F 93% 30.12 in 3.0 mi Calm Calm - N/A   Clear
6:27 AM 53.6 °F 51.8 °F 94% 30.13 in 1.5 mi Calm Calm - N/A   Clear
6:29 AM 55.4 °F 53.6 °F 94% 30.13 in 0.8 mi Calm Calm - N/A   Mist
6:42 AM 55.4 °F 53.6 °F 94% 30.14 in 1.2 mi Calm Calm - N/A   Partly Cloudy
6:51 AM 55.4 °F 53.6 °F 94% 30.14 in 0.8 mi Calm Calm - N/A   Mist
6:53 AM 55.0 °F 53.1 °F 93% 30.14 in 0.8 mi Calm Calm - N/A   Mist
7:07 AM 53.6 °F 53.6 °F 100% 30.14 in 1.2 mi Calm Calm - N/A   Partly Cloudy
7:11 AM 53.6 °F 53.6 °F 100% 30.15 in 0.8 mi Calm Calm - N/A   Mist
7:35 AM 55.4 °F 53.6 °F 94% 30.15 in 0.2 mi Calm Calm - N/A Fog Fog
7:41 AM 53.6 °F 53.6 °F 100% 30.16 in 1.0 mi Calm Calm - N/A   Mist
7:44 AM 53.6 °F 51.8 °F 94% 30.16 in 1.8 mi Calm Calm - N/A   Partly Cloudy
7:53 AM 55.0 °F 53.1 °F 93% 30.16 in 1.0 mi Calm Calm - N/A   Clear
7:59 AM 55.4 °F 53.6 °F 94% 30.16 in 2.0 mi Calm Calm - N/A   Clear
8:07 AM 55.4 °F 53.6 °F 94% 30.17 in 5.0 mi Calm Calm - N/A   Clear
8:53 AM 63.0 °F 60.1 °F 90% 30.17 in 10.0 mi Calm Calm - N/A   Clear
9:53 AM 68.0 °F 61.0 °F 78% 30.18 in 10.0 mi WSW 6.9 mph - N/A   Clear
10:53 AM 71.1 °F 61.0 °F 70% 30.17 in 10.0 mi WSW 8.1 mph - N/A   Mostly Cloudy
11:53 AM 73.9 °F 62.1 °F 66% 30.14 in 10.0 mi WSW 8.1 mph - N/A   Clear
12:53 PM 73.9 °F 61.0 °F 64% 30.12 in 10.0 mi West 8.1 mph - N/A   Clear
1:53 PM 75.9 °F 61.0 °F 60% 30.10 in 10.0 mi SW 6.9 mph - N/A   Partly Cloudy
2:53 PM 73.9 °F 59.0 °F 59% 30.11 in 10.0 mi SSW 12.7 mph - N/A   Clear
3:53 PM 73.0 °F 59.0 °F 61% 30.12 in 10.0 mi SSW 8.1 mph - N/A   Clear
4:53 PM 70.0 °F 60.1 °F 71% 30.14 in 10.0 mi South 8.1 mph - N/A   Clear
5:53 PM 66.0 °F 60.1 °F 81% 30.14 in 10.0 mi South 8.1 mph - N/A   Clear
6:53 PM 64.9 °F 60.1 °F 84% 30.13 in 10.0 mi South 8.1 mph - N/A   Clear
7:53 PM 64.0 °F 60.1 °F 87% 30.13 in 10.0 mi South 6.9 mph - N/A   Clear
8:53 PM 62.1 °F 60.1 °F 93% 30.12 in 10.0 mi South 5.8 mph - N/A   Clear
9:53 PM 63.0 °F 60.1 °F 90% 30.14 in 10.0 mi SSW 5.8 mph - N/A   Clear
10:53 PM 62.1 °F 60.1 °F 93% 30.16 in 10.0 mi SSW 5.8 mph - N/A   Clear
11:53 PM 62.1 °F 59.0 °F 90% 30.16 in 10.0 mi SSW 5.8 mph - N/A   Clear